Home > Weather > Bowling Green > Past weeks

Flag for USA Past Weather in Bowling Green, Kentucky, USA — Yesterday and Last 2 Weeks

Now
74 °F

Clear.


Feels Like: 69 °F
Forecast: 74 / 93 °F
Wind: No wind

Location: Glasgow Municipal Airport

Current Time: Jul 24, 2016 at 3:58:33 AM

Latest Report: Jul 24, 2016 at 3:15 AM


Visibility: 10 mi

Pressure: 29.99 "Hg

Humidity: 100%

Dew Point: 74 °F

Location of Bowling GreenLocation

Past Weather in Bowling Green — Graph

°F

Bowling Green Temperature Yesterday

Maximum temperature yesterday: 92 °F (at 1:55 PM)
Minimum temperature yesterday: 72 °F (at 4:55 AM)
Average temperature yesterday: 82 °F

High & Low Weather Summary for the Past Weeks

 TemperatureHumidityPressure
High94 °F (Jul 19, 3:35 PM)100% (Jul 9, 4:55 AM)30.28 "Hg (Jul 9, 4:55 AM)
Low66 °F (Jul 10, 2:55 AM)41% (Jul 19, 3:55 PM)29.94 "Hg (Jul 23, 6:15 PM)
Average78 °F80%30.08 "Hg
* Reported Jul 9 2:15 AM — Jul 24 2:35 AM, Bowling Green, Weather by CustomWeather, © 2016

Note: Actual official high and low records may vary slightly from our data, if they occured in-between our weather recording intervals... More about our weather records

Advertising

Bowling Green Weather History for the Previous 24 Hours

Scroll right to see more
 ConditionsComfort  
Time TempWeatherWind HumidityBarometerVisibility
2:35 AM
Sun, Jul 24
75 °FClear.No wind98%30.00 "Hg10 mi
2:15 AM76 °FClear.No wind93%29.99 "Hg10 mi
1:55 AM76 °FClear.No wind94%30.00 "Hg10 mi
1:35 AM76 °FClear.No wind93%30.00 "Hg10 mi
1:15 AM77 °FClear.3 mph94%30.01 "Hg10 mi
12:55 AM76 °FClear.3 mph96%30.00 "Hg10 mi
12:35 AM76 °FClear.No wind98%30.01 "Hg10 mi
12:15 AM76 °FClear.No wind97%30.00 "Hg10 mi
11:55 PM
Sat, Jul 23
77 °FClear.No wind93%30.01 "Hg10 mi
11:35 PM77 °FClear.No wind87%30.01 "Hg10 mi
11:15 PM78 °FClear.No wind82%30.00 "Hg10 mi
10:55 PM80 °FClear.No wind78%30.01 "Hg10 mi
10:35 PM80 °FClear.No wind77%30.01 "Hg10 mi
10:15 PM80 °FClear.No wind76%30.01 "Hg10 mi
9:55 PM81 °FClear.3 mph75%30.01 "Hg10 mi
9:35 PM82 °FClear.6 mph74%30.00 "Hg10 mi
9:15 PM82 °FClear.3 mph74%29.99 "Hg10 mi
8:55 PM83 °FClear.3 mph73%29.99 "Hg10 mi
8:35 PM83 °FClear.5 mph72%29.98 "Hg10 mi
8:15 PM82 °FClear.No wind83%29.97 "Hg10 mi
7:55 PM84 °FSunny.No wind75%29.97 "Hg10 mi
7:15 PM87 °FSunny.3 mph64%29.96 "Hg10 mi
6:55 PM89 °FSunny.3 mph59%29.96 "Hg10 mi
6:35 PM89 °FSunny.3 mph58%29.95 "Hg10 mi
6:15 PM90 °FSunny.5 mph56%29.94 "Hg10 mi
5:55 PM90 °FSunny.6 mph56%29.95 "Hg10 mi
5:35 PM91 °FSunny.5 mph54%29.95 "Hg10 mi
5:15 PM91 °FSunny.6 mph54%29.95 "Hg10 mi
4:55 PM91 °FSunny.No wind53%29.96 "Hg10 mi
4:35 PM92 °FSunny.3 mph54%29.96 "Hg10 mi
4:15 PM90 °FSunny.3 mph57%29.97 "Hg10 mi
3:55 PM90 °FScattered clouds.3 mph57%29.98 "Hg10 mi
3:35 PM92 °FMostly cloudy.3 mph54%29.98 "Hg10 mi
3:15 PM92 °FPartly sunny.No wind52%29.98 "Hg10 mi
2:55 PM90 °FScattered clouds.No wind56%29.98 "Hg10 mi
2:30 PM90 °FScattered clouds.No wind56%29.99 "Hg10 mi
2:15 PM90 °FPartly sunny.No wind58%30.00 "Hg10 mi
1:55 PM92 °FPartly sunny.No wind53%30.00 "Hg10 mi
1:35 PM91 °FScattered clouds.No wind56%30.00 "Hg10 mi
1:15 PM90 °FScattered clouds.No wind53%30.00 "Hg10 mi
12:55 PM91 °FScattered clouds.6 mph52%30.01 "Hg10 mi
12:35 PM91 °FPartly sunny.No wind56%30.01 "Hg10 mi
12:15 PM89 °FScattered clouds.No wind60%30.01 "Hg10 mi
11:55 AM89 °FSunny.No wind63%30.02 "Hg10 mi
11:35 AM88 °FSunny.No wind62%30.02 "Hg10 mi
11:15 AM86 °FSunny.3 mph67%30.02 "Hg10 mi
10:55 AM86 °FSunny.3 mph66%30.02 "Hg10 mi
10:35 AM85 °FSunny.3 mph69%30.03 "Hg10 mi
10:15 AM84 °FSunny.No wind71%30.03 "Hg10 mi
9:55 AM82 °FSunny.3 mph81%30.04 "Hg10 mi
9:15 AM81 °FSunny.No wind84%30.04 "Hg10 mi
8:55 AM80 °FSunny.No wind91%30.04 "Hg10 mi
8:35 AM78 °FSunny.3 mph97%30.04 "Hg10 mi
8:15 AM75 °FSunny.No wind100%30.04 "Hg7 mi
7:55 AM75 °FSunny.No wind100%30.04 "Hg7 mi
7:35 AM75 °FScattered clouds.No wind100%30.04 "Hg7 mi
7:15 AM74 °FScattered clouds.No wind100%30.03 "Hg5 mi
6:55 AM73 °FSunny.No wind100%30.03 "Hg5 mi
6:35 AM72 °FSunny.No wind100%30.03 "Hg3 mi
6:15 AM72 °FSunny.No wind100%30.02 "Hg2 mi
5:55 AM72 °FPartly sunny.No wind100%30.02 "Hg2 mi
5:35 AM72 °FLow clouds.No wind100%30.02 "Hg1 mi
5:15 AM72 °FClear.3 mph100%30.01 "Hg2 mi
4:55 AM72 °FClear.No wind100%30.01 "Hg3 mi
4:35 AM72 °FClear.No wind100%30.01 "Hg3 mi
4:15 AM72 °FClear.No wind100%30.01 "Hg2 mi
3:55 AM72 °FClear.No wind100%30.01 "Hg5 mi
3:35 AM73 °FClear.No wind100%30.02 "Hg4 mi
3:15 AM73 °FClear.No wind100%30.01 "Hg4 mi
Weather by CustomWeather, © 2016

See weather overviewHow to use our weather pages